This is the latest recevied weather packets stored in our database for station/object IT9CNT. If no packets are shown the sender has not sent any weather packets the latest 1 day(s).
| Time | Temp. | Humidity | Pressure | Rain* | Wind** | Luminosity | Snow |
|---|---|---|---|---|---|---|---|
| 1778022543 | 16.67° C | 76% | 1012.6 hPa | 0 mm | 1.79 m/s, 90° | - | - |
| 1778022483 | 16.67° C | 76% | 1012.6 hPa | 0 mm | 1.79 m/s, 92° | - | - |
| 1778022423 | 16.67° C | 76% | 1012.7 hPa | 0 mm | 1.34 m/s, 95° | - | - |
| 1778022363 | 16.67° C | 76% | 1012.3 hPa | 0 mm | 1.34 m/s, 97° | - | - |
| 1778022303 | 16.67° C | 76% | 1012.6 hPa | 0 mm | 1.34 m/s, 87° | - | - |
| 1778022243 | 16.67° C | 76% | 1012.6 hPa | 0 mm | 1.34 m/s, 83° | - | - |
| 1778022183 | 16.67° C | 76% | 1012.3 hPa | 0 mm | 1.34 m/s, 81° | - | - |
| 1778022123 | 16.67° C | 76% | 1012.6 hPa | 0 mm | 1.79 m/s, 73° | - | - |
| 1778022063 | 16.67° C | 76% | 1012.5 hPa | 0 mm | 1.79 m/s, 65° | - | - |
| 1778022003 | 16.67° C | 76% | 1012.7 hPa | 0 mm | 1.79 m/s, 57° | - | - |
| 1778021943 | 16.67° C | 76% | 1012.6 hPa | 0 mm | 2.24 m/s, 56° | - | - |
| 1778021883 | 16.67° C | 76% | 1012.5 hPa | 0 mm | 2.24 m/s, 58° | - | - |
| 1778021823 | 16.67° C | 76% | 1012.5 hPa | 0 mm | 2.24 m/s, 60° | - | - |
| 1778021763 | 16.67° C | 76% | 1012.5 hPa | 0 mm | 2.68 m/s, 58° | - | - |
| 1778021703 | 16.67° C | 76% | 1012.7 hPa | 0 mm | 2.68 m/s, 61° | - | - |
| 1778021643 | 16.67° C | 76% | 1012.6 hPa | 0 mm | 2.68 m/s, 59° | - | - |
| 1778021583 | 16.67° C | 75% | 1012.6 hPa | 0 mm | 2.68 m/s, 60° | - | - |
| 1778021523 | 16.67° C | 75% | 1012.6 hPa | 0 mm | 2.68 m/s, 68° | - | - |
| 1778021463 | 16.67° C | 75% | 1012.3 hPa | 0 mm | 2.24 m/s, 70° | - | - |
| 1778021403 | 16.67° C | 75% | 1012.5 hPa | 0 mm | 2.24 m/s, 70° | - | - |
| 1778021343 | 16.67° C | 75% | 1012.6 hPa | 0 mm | 2.24 m/s, 77° | - | - |
| 1778021283 | 16.67° C | 75% | 1012.5 hPa | 0 mm | 2.24 m/s, 73° | - | - |
| 1778021223 | 16.67° C | 75% | 1012.5 hPa | 0 mm | 2.68 m/s, 70° | - | - |
| 1778021163 | 16.67° C | 74% | 1012.5 hPa | 0 mm | 2.68 m/s, 69° | - | - |
| 1778021103 | 16.67° C | 74% | 1012.3 hPa | 0 mm | 2.68 m/s, 66° | - | - |
* Rain latest hour (hover to see other rain measurements)
** Current wind speed in m/s (hover to see current wind gust speed)